Location: Ravensburg
(47.7866°N, 9.6124°E)
Time: 09:38:03
(UTC+02:00)

YUBILEINY - Pass Details

Date: 15 March 2026
Orbit: 1477 x 1509 km, 82.5° (Epoch: 17 April)

Event Time Altitude Azimuth Distance (km) Brightness Sun altitude
Rises 03:54:47 0° 349° (N) 4,623 ? -26.7°
Reaches altitude 10° 03:57:40 10° 348° (NNW) 3,636 ? -26.3°
Maximum altitude 04:06:23 78° 264° (W) 1,510 ? -25.0°
Drops below altitude 10° 04:15:02 10° 180° (S) 3,606 ? -23.7°
Sets 04:17:53 0° 179° (S) 4,582 ? -23.3°
